SCP
1 2 3 2 2 2 2 1 1 1 1 1 1 1 1 1 1 1 1 1 1 1 1 1 1 1 1 1 1 1 1 1 1 0 0 0 0 0 0 0 1 1 1
1 2 2 2 2 2 1 1 1 1 1 1 1 1 1 1 1 1 1 1 1 1 1 1 1 1 1 1 1 1 1 1 1 0 0 0 0 0 0 0 1 1 1
1 1 2 2 2 2 1 1 1 1 1 1 1 1 1 1 1 1 1 1 1 1 1 1 1 1 1 1 1 1 1 1 1 0 0 0 0 0 0 1 1 1 1
2 1 1 2 2 2 1 1 1 1 1 1 1 1 1 1 1 1 1 1 1 1 1 1 1 1 1 1 1 1 1 0 0 0 0 0 0 0 0 0 1 1 1
1 1 1 2 2 2 2 1 1 1 1 1 1 1 1 1 1 1 1 1 1 1 1 1 1 1 1 1 1 1 1 0 0 0 0 0 0 0 0 0 0 0 0
1 1 2 3 3 3 2 1 1 1 1 1 1 1 1 1 1 1 1 1 1 1 1 1 1 1 1 1 1 1 1 0 0 0 0 0 0 0 0 0 0 0 0
1 1 2 3 3 3 3 2 1 1 1 1 1 1 1 1 1 1 1 1 1 1 1 1 1 1 1 1 1 1 1 1 0 0 0 0 0 0 0 1 0 0 0
1 2 3 3 3 3 3 2 1 1 1 1 1 1 1 1 1 1 1 1 1 1 1 1 1 1 1 1 1 1 1 1 1 1 1 0 1 1 1 1 1 1 0
2 2 3 3 3 3 3 2 2 1 1 1 1 1 1 1 1 1 1 1 1 1 1 1 1 1 1 1 1 1 1 1 1 1 1 1 1 1 1 1 1 1 1
2 3 3 3 3 3 3 2 2 1 1 1 1 1 1 1 1 1 1 1 1 1 1 1 1 1 1 1 1 1 1 1 1 1 1 1 1 1 1 1 1 1 1
2 2 3 3 3 2 2 2 2 1 1 1 1 1 1 1 1 1 1 1 1 1 1 1 1 1 1 1 1 1 1 1 1 1 1 1 2 2 2 2 1 1 1
1 2 2 3 3 2 2 2 1 1 1 1 0 0 0 0 0 0 1 1 1 1 1 1 1 1 1 1 1 1 1 1 1 1 1 1 2 2 2 2 2 2 1
1 1 1 2 2 2 2 1 1 1 1 0 0 0 0 0 0 0 0 0 0 1 1 1 1 1 1 1 1 1 1 1 1 1 1 1 1 2 2 2 2 2 2
1 1 1 1 1 1 1 1 1 1 1 0 0 0 0 0 0 0 0 0 0 0 1 1 1 1 1 1 1 1 0 0 1 1 1 1 1 1 1 1 1 1 2
1 1 1 1 1 1 1 1 1 1 1 1 1 1 0 0 0 0 1 1 1 1 1 1 1 1 1 0 0 0 0 0 1 1 1 1 1 1 1 1 1 1 1
1 1 1 1 1 1 2 2 2 2 1 1 1 1 1 1 0 1 1 1 1 1 1 1 0 0 0 0 0 0 0 0 0 1 1 1 1 2 2 1 1 1 1
1 1 1 1 1 1 1 2 2 2 2 1 1 1 1 1 1 1 1 1 1 1 1 1 0 0 0 0 0 0 0 0 0 0 1 1 1 2 2 2 2 1 1
1 1 1 1 1 1 1 1 1 2 2 2 2 2 2 1 1 1 1 1 1 1 0 0 0 0 0 0 0 0 0 0 0 1 1 1 1 1 2 2 2 2 2
1 1 1 1 1 1 1 1 1 1 2 3 3 4 3 2 2 1 1 1 1 1 0 0 0 0 0 0 0 0 0 0 0 1 1 0 1 1 1 2 2 2 2
1 1 1 1 1 1 1 1 1 1 1 2 4 5 5 3 2 1 1 1 1 1 0 0 0 0 0 0 0 0 0 0 0 1 0 0 0 1 1 1 2 2 2
1 1 1 1 1 1 1 1 1 1 1 2 3 5 5 3 2 1 1 1 1 0 0 0 0 0 0 0 0 0 0 0 0 0 0 0 0 1 1 1 1 1 1
2 1 1 1 1 1 1 1 1 1 1 1 3 4 3 2 1 1 1 1 1 1 0 0 0 0 0 0 0 0 0 0 0 0 0 0 0 1 1 1 1 1 1
2 2 1 1 1 1 1 1 1 1 1 1 2 2 2 1 1 1 1 1 1 1 0 0 0 0 1 1 0 0 0 0 0 0 0 0 0 1 1 1 1 1 1
2 2 2 1 1 1 1 1 1 1 1 1 1 1 1 1 1 1 1 1 1 1 1 0 0 1 1 1 1 1 1 0 0 0 0 0 0 0 1 1 1 1 1
3 3 2 2 2 1 1 1 1 1 1 1 1 1 1 1 1 1 1 1 1 1 1 1 1 1 1 1 1 1 1 1 0 0 0 0 0 0 0 0 0 1 1
4 3 3 2 2 2 2 1 1 1 1 1 1 1 1 1 1 1 1 1 1 1 1 1 1 1 1 1 1 1 1 1 0 0 0 0 0 0 0 0 0 1 1
Wind_Speed
4 5 11 13 15 15 15 16 16 17 17 17 18 18 19 19 19 18 18 17 17 15 15 14 14 14 13 13 14 14 14 14 14 13 13 13 13 13 13 13 12 9 13
8 7 13 15 16 15 15 16 16 16 17 17 17 18 18 18 18 18 17 16 16 15 14 14 13 13 13 13 13 13 12 12 12 12 12 11 12 12 12 12 12 8 13
10 8 12 15 15 15 15 15 16 17 17 17 17 17 17 17 17 17 16 15 15 14 14 13 13 12 12 12 11 11 11 11 11 11 10 5 7 11 12 12 12 12 12
10 8 10 15 15 15 15 15 16 17 17 16 16 16 17 16 16 16 15 14 14 13 13 12 12 12 11 10 10 9 9 10 10 10 5 4 5 10 12 12 12 12 12
9 7 11 16 16 15 15 14 15 16 16 16 16 16 16 16 15 15 14 14 13 13 12 11 11 10 10 9 8 7 7 7 8 7 4 3 4 9 11 11 11 11 11
8 8 11 16 16 15 15 14 15 15 16 16 15 15 15 15 14 14 14 13 12 12 11 10 10 9 9 8 7 6 5 5 5 4 4 4 4 9 11 11 11 10 10
9 7 9 16 15 15 15 15 15 15 15 15 15 14 14 14 13 13 13 13 12 11 10 9 9 8 7 7 6 4 3 3 3 4 4 4 5 9 11 11 10 10 10
10 7 8 15 16 15 15 14 14 15 15 15 15 14 14 13 13 13 13 12 11 10 9 8 8 7 6 5 4 3 2 3 4 5 4 4 8 10 11 11 10 10 9
9 8 6 8 11 14 14 14 14 14 14 14 14 14 13 13 13 12 12 11 11 10 9 8 7 6 5 5 4 3 2 3 2 3 5 4 9 11 12 11 11 10 10
7 6 6 6 6 6 8 13 13 13 13 12 13 13 13 12 12 12 10 10 10 9 9 8 7 7 6 5 4 4 3 2 2 3 3 6 11 12 12 12 11 11 10
7 5 5 6 5 5 5 9 10 11 11 10 9 12 10 4 5 6 8 10 10 9 9 8 8 7 6 5 5 5 3 1 2 2 3 8 12 12 12 11 11 11 10
8 6 5 6 5 5 6 5 3 4 5 4 4 5 3 3 3 5 8 10 10 9 9 8 8 6 4 2 3 4 1 2 2 3 4 10 12 13 12 11 11 11 10
8 7 6 5 5 5 4 4 2 2 3 3 4 4 3 3 2 3 2 4 5 6 4 4 4 2 3 2 2 2 2 2 2 2 5 11 12 13 13 12 11 10 10
7 7 6 6 5 5 4 3 3 3 2 3 3 4 3 2 2 3 2 2 2 2 2 2 2 2 3 3 3 2 2 2 2 2 5 12 12 13 13 12 11 11 10
7 6 6 5 5 5 4 4 4 3 3 4 3 4 4 3 3 3 3 2 2 2 3 2 2 2 2 2 2 3 3 3 3 3 3 10 11 12 12 12 12 11 11
6 6 5 5 5 5 4 4 4 4 3 3 3 4 5 4 3 3 3 2 2 2 2 2 3 2 2 2 2 2 3 3 4 3 3 6 11 11 11 12 12 11 11
7 5 5 5 5 5 4 4 4 3 3 3 3 4 5 4 4 4 3 2 2 2 2 2 2 1 1 1 2 2 2 2 2 3 3 3 5 9 11 11 11 11 11
7 6 5 5 5 4 3 3 3 3 3 3 3 4 5 5 4 4 3 2 2 2 2 2 1 1 1 1 1 2 2 1 2 2 3 3 3 4 7 11 11 11 11
7 6 5 4 4 4 3 3 3 3 3 3 3 3 4 4 4 4 3 3 2 2 2 2 2 2 1 1 2 2 2 2 2 3 3 3 4 4 4 7 11 12 12
6 5 5 4 3 3 2 2 1 2 2 2 3 3 4 4 4 4 3 3 3 2 2 2 2 2 2 2 2 2 2 2 2 3 4 3 3 5 5 5 5 7 12
6 5 4 4 3 2 2 1 2 2 2 2 3 4 5 5 4 4 3 3 3 3 4 3 2 2 1 1 0 1 2 2 3 3 3 3 4 4 4 5 4 4 4
7 6 5 4 4 3 2 2 2 2 2 2 2 3 4 5 5 4 4 4 3 3 3 3 2 2 2 1 2 0 2 3 3 3 2 3 4 4 4 6 5 5 5
8 7 6 5 4 3 2 2 1 1 1 0 1 2 3 4 5 4 5 4 4 4 3 4 4 4 3 2 2 3 2 2 2 3 3 3 3 3 4 4 5 5 6
9 8 6 5 4 4 3 3 3 2 2 2 2 2 3 4 4 5 5 4 4 3 4 4 4 3 3 2 2 2 3 3 2 2 3 3 3 3 4 4 4 5 6
10 8 6 5 4 3 3 4 3 2 1 1 1 1 1 2 3 4 4 4 4 3 4 4 3 3 3 3 3 2 2 2 2 2 3 3 2 3 4 4 4 4 5
8 7 7 6 5 4 4 3 3 3 2 2 1 1 1 1 2 2 3 3 4 4 4 4 4 4 4 4 3 3 3 3 3 3 3 3 3 3 3 3 4 4 4
Wind_Direction
141 147 133 132 126 122 118 115 115 115 113 112 113 115 118 120 121 123 125 126 126 126 124 123 122 122 122 122 122 121 120 119 119 118 116 116 117 119 116 114 113 111 114
143 140 123 124 125 122 120 119 119 118 117 117 117 119 121 122 123 124 126 127 126 125 124 123 122 121 120 121 122 122 121 121 120 118 116 115 119 122 118 118 117 124 123
135 136 129 126 127 125 123 122 122 122 121 121 121 121 123 125 125 126 128 128 128 127 126 125 124 122 120 120 122 123 124 124 123 119 115 111 118 124 123 122 124 126 125
136 137 134 131 129 128 127 126 125 125 125 124 123 124 125 127 129 130 131 130 130 129 129 129 127 126 124 122 121 124 129 132 131 127 125 125 126 128 128 128 130 129 127
134 138 139 134 132 132 131 129 129 130 129 129 128 128 128 129 131 133 133 134 134 133 133 133 131 131 130 128 126 125 130 138 138 139 139 132 130 138 137 136 135 133 133
133 140 143 137 136 135 134 132 132 134 133 132 133 133 132 132 135 137 138 138 137 137 137 136 137 137 137 136 135 134 133 137 135 133 143 146 146 149 145 143 144 141 139
134 140 144 139 138 138 138 137 137 138 137 137 137 138 138 139 141 142 142 142 142 142 142 143 145 145 146 148 148 146 144 145 137 146 155 160 162 159 155 152 151 150 147
138 139 143 144 143 142 142 141 141 142 142 141 141 143 145 146 148 148 148 149 148 149 149 152 155 158 161 161 165 165 162 160 134 158 167 172 171 167 162 158 157 157 157
135 136 136 144 146 146 146 145 145 146 146 146 146 147 150 152 154 156 157 157 156 156 158 164 170 172 177 184 192 198 201 177 150 165 180 180 178 175 171 167 166 166 168
127 133 135 139 142 145 147 148 148 148 149 149 150 154 156 159 162 164 166 167 168 169 171 177 182 188 197 207 218 226 222 195 178 179 177 183 182 180 178 174 175 175 177
128 132 137 138 141 143 146 152 151 152 154 154 155 159 160 159 164 170 175 178 181 183 185 189 194 199 207 220 231 236 235 191 184 176 178 186 184 180 179 179 179 182 185
142 144 146 148 148 146 150 141 139 146 149 148 148 158 155 160 177 178 188 190 191 194 197 201 205 212 214 221 233 236 213 196 195 183 187 186 185 184 182 181 183 186 189
149 147 151 152 151 148 139 140 143 141 141 150 156 160 157 160 179 183 184 195 198 202 204 211 212 213 211 216 220 210 195 196 198 198 188 188 188 188 188 186 187 190 194
145 151 152 152 153 152 145 147 149 149 154 167 175 168 161 164 175 177 185 189 190 199 203 212 204 211 218 216 210 206 205 195 199 193 193 190 191 192 193 190 192 196 198
147 152 157 157 156 157 153 159 155 163 172 175 172 173 172 170 175 177 184 183 187 194 194 193 193 196 205 218 220 209 207 196 199 192 193 194 194 196 196 195 198 200 202
142 147 148 144 149 151 155 159 163 171 175 171 169 178 177 173 174 173 176 180 187 194 189 187 191 189 202 212 221 220 217 201 197 194 192 198 197 198 200 199 202 203 204
147 146 152 148 139 142 152 162 161 172 170 170 177 179 174 174 170 167 172 183 192 188 183 174 187 171 195 210 211 232 231 209 197 198 194 196 197 201 201 202 205 209 209
142 143 156 153 141 143 150 160 158 168 168 176 181 180 182 180 174 166 169 186 192 179 172 174 181 165 209 216 221 239 237 211 210 215 203 203 197 200 204 206 208 211 212
150 150 152 145 150 153 150 152 161 163 173 175 177 182 185 182 181 176 181 189 187 181 185 192 173 174 192 222 238 238 240 220 218 232 221 209 203 202 204 209 213 215 216
152 152 155 151 155 151 137 127 134 147 179 176 182 189 186 186 183 178 184 193 184 179 193 193 181 182 193 207 243 268 258 246 228 228 231 219 207 211 211 213 215 221 221
150 153 162 158 163 150 148 156 158 184 196 191 199 194 191 191 188 183 189 193 190 188 197 192 181 189 212 180 91 314 298 267 250 241 234 222 222 222 215 214 211 215 225
162 164 168 170 168 170 178 181 182 182 193 194 199 192 196 191 190 192 190 193 190 188 197 197 182 191 228 191 158 124 326 322 298 263 244 227 227 222 222 221 212 213 218
170 171 171 175 172 175 169 141 128 89 43 150 191 200 208 198 196 197 194 190 192 190 196 203 195 193 214 234 191 173 181 238 287 286 255 241 230 222 227 224 218 218 221
176 175 172 172 172 174 164 147 149 166 186 202 193 203 215 204 202 203 197 192 193 188 189 202 198 191 188 226 241 219 202 187 193 275 291 263 245 233 231 235 229 224 226
174 174 171 169 169 172 170 163 158 162 177 167 145 171 222 220 213 207 193 189 192 193 194 199 196 192 190 203 218 225 231 226 200 201 264 285 281 250 232 227 226 226 225
170 169 167 167 173 175 172 170 170 168 158 142 157 182 229 241 224 211 196 195 199 199 198 199 200 203 209 213 219 213 205 209 211 201 229 258 269 270 249 232 227 231 232